Regional Weather Roundup
Issued by NWS

Home | Current Version | Previous Version | Text Only | Print | Product List | Glossary On
Versions: 1 2 3 4 5 6 7 8 9 10 11 12 13 14 15 16 17 18 19 20 21 22 23 24 25 26 27 28 29 30 31 32 33 34 35 36 37 38 39 40 41 42 43 44 45 46 47 48 49 50
000
ASUS43 KFSD 241410
RWRSD

WEATHER ROUNDUP FOR SOUTH DAKOTA
NATIONAL WEATHER SERVICE SIOUX FALLS SD
900 AM CDT FRI MAR 24 2017

NOTE: "FAIR" INDICATES FEW OR NO CLOUDS BELOW 12,000 FEET WITH NO
SIGNIFICANT WEATHER AND/OR OBSTRUCTIONS TO VISIBILITY.


SDZ001>005-009-010-012>017-241500-
NORTHWEST AND NORTH CENTRAL SOUTH DAKOTA

CITY           SKY/WX    TMP DP  RH WIND       PRES   REMARKS
BUFFALO          N/A     38  34  85 NW7       30.01R
FAITH            N/A     40  39  97 NW9       30.05R
MOBRIDGE       CLOUDY    35  29  78 CALM      30.05R
$$

SDZ012>016-024>037-041>051-057-063-072>074-241500-
SOUTHWEST AND SOUTH CENTRAL SOUTH DAKOTA

CITY           SKY/WX    TMP DP  RH WIND       PRES   REMARKS
RAPID CTY ARPT CLOUDY    41  36  82 W7        30.07R
PIERRE         CLOUDY    38  34  85 N9        30.05R
CUSTER         CLOUDY    37  32  82 CALM      30.08R
ELLSWORTH AFB  CLOUDY    43  39  85 W5        30.07
PHILIP         MOSUNNY   37  36  96 W5        30.07R
PINE RIDGE     CLOUDY    39  38  96 N6        30.08R
SPEARFISH      FAIR      37  34  87 W8        30.10R
WINNER         CLOUDY    42  36  79 N18       30.03R
$$

SDZ004>011-016>023-039-040-241500-
NORTHEAST SOUTH DAKOTA

CITY           SKY/WX    TMP DP  RH WIND       PRES   REMARKS
ABERDEEN       CLOUDY    34  30  85 N16       30.07R WCI  24
WATERTOWN      CLOUDY    36  34  92 NE15      30.00R
BROOKINGS      CLOUDY    35  33  92 N16G22    29.96R FOG     WCI  25
SISSETON         N/A     35  35 100 N12       30.04R WCI  27
$$

SDZ017-020-022-023-036>040-048>070-241500-
SOUTHEAST SOUTH DAKOTA

CITY           SKY/WX    TMP DP  RH WIND       PRES   REMARKS
SIOUX FALLS    CLOUDY    39  36  89 N10       29.97R
HURON          CLOUDY    36  35  96 N16       30.03R
CHAMBERLAIN    CLOUDY    40  37  89 N12G17    30.03R
MITCHELL       CLOUDY    38  36  92 N17       30.02R
YANKTON        CLOUDY    39  36  87 N13       29.97R
$$

ABBREVIATIONS USED IN REMARKS
   TC - TEMPERATURE IN CELSIUS
  WCI - WIND CHILL INDEX
   HX - HEAT INDEX
  VSB - VISIBILITY




USA.gov is the U.S. government's official web portal to all federal, state and local government web resources and services.